Location: Natural Bridges National Monument
(37.6093°N, 109.9767°W)
Time: 11:12:14
(UTC-07:00)

Amateur Radio Satellites - All Passes

Search period start: 20 January 2017 10:42
Search period end: 21 January 2017 10:42
Location: Natural Bridges National Monument, 37.6093°N, 109.9767°W

Satellite Date Start Highest point End Downlink Frequencies (MHz)
Time Altitude Azimuth
DELFI C3 20 Jan 10:45:26 10:48:55 29° 289° (WNW) 10:52:21 145.870
ANTELSAT 20 Jan 10:47:53 10:50:47 18° 266° (W) 10:53:42 437.575/2403.000
DUCHIFAT 1 20 Jan 10:49:05 10:52:48 33° 72° (ENE) 10:56:33 145.980
PCSat 20 Jan 10:49:25 10:54:43 54° 247° (WSW) 10:59:58 145.827
NANOSAT C BR1 20 Jan 10:54:20 10:58:16 42° 73° (ENE) 11:02:13 145.865
BUGSAT 1 20 Jan 11:24:19 11:27:49 28° 71° (ENE) 11:31:18 437.445
ESTCUBE 1 20 Jan 11:27:36 11:31:58 45° 99° (E) 11:36:17 437.505/2401.250
VELOX 1 20 Jan 11:40:00 11:43:19 21° 95° (E) 11:46:36 145.980
QB50P1 20 Jan 11:46:38 11:50:34 40° 261° (W) 11:54:32 145.935-145.965
POLYITAN 1 20 Jan 11:50:53 11:54:44 35° 262° (W) 11:58:36 437.675
QB50P2 20 Jan 11:52:14 11:56:00 32° 263° (W) 11:59:47 145.880/145.840
BY70-1 20 Jan 12:04:05 12:06:32 20° 291° (WNW) 12:08:52 436.1900
JAS-2 20 Jan 12:07:02 12:10:01 15° 271° (W) 12:13:08 435.910
SPROUT 20 Jan 12:08:43 12:12:32 32° 97° (E) 12:16:21 437.525
UKube-1 20 Jan 12:12:08 12:14:42 15° 94° (E) 12:17:16 .
DX 1 20 Jan 12:12:15 12:15:37 22° 95° (E) 12:18:58 434.975-435.025
POPSAT HIP 1 20 Jan 12:14:32 12:17:39 20° 265° (W) 12:20:47 437.405
Oscar 19 20 Jan 12:20:19 12:24:59 35° 69° (ENE) 12:29:42 437.125/150
DUCHIFAT 1 20 Jan 12:25:44 12:28:32 17° 266° (W) 12:31:22 145.980
CUBEBUG 1 20 Jan 12:25:50 12:30:07 66° 285° (WNW) 12:34:23 437.445
NANOSAT C BR1 20 Jan 12:32:00 12:34:10 14° 268° (W) 12:36:20 145.865
Gurwin Techsat 1B 20 Jan 12:34:37 12:38:57 26° 67° (ENE) 12:43:17 435.225
AISAT 20 Jan 12:42:06 12:46:28 70° 286° (WNW) 12:50:48 437.250
50 SAT 20 Jan 12:50:34 12:54:06 64° 283° (WNW) 12:57:35 437.505
BUGSAT 1 20 Jan 13:00:14 13:03:10 19° 265° (W) 13:06:06 437.445
Cosmos 2491 20 Jan 13:02:26 13:10:58 52° 78° (ENE) 13:19:29 435.465 / 435.565
AO-7 20 Jan 13:03:01 13:07:42 16° 51° (NE) 13:12:22 29.400- 29.500
ESTCUBE 1 20 Jan 13:05:36 13:08:21 16° 294° (WNW) 13:11:06 437.505/2401.250
YUBILEINY 20 Jan 13:08:08 13:14:44 24° 81° (E) 13:21:21 435.215
VELOX 1 20 Jan 13:15:54 13:19:46 31° 290° (WNW) 13:23:37 145.980
CUSAT 1 20 Jan 13:19:19 13:26:06 30° 69° (ENE) 13:32:27 437.405
TISAT 1 20 Jan 13:36:31 13:40:30 43° 99° (E) 13:44:28 437.305
SPROUT 20 Jan 13:45:11 13:48:13 19° 292° (WNW) 13:51:14 437.525
UKube-1 20 Jan 13:46:51 13:50:52 40° 288° (WNW) 13:54:53 .
DX 1 20 Jan 13:48:03 13:51:47 29° 290° (WNW) 13:55:30 434.975-435.025
Oscar 19 20 Jan 14:00:04 14:04:19 25° 265° (W) 14:08:36 437.125/150
AO-85 20 Jan 14:05:55 14:10:43 80° 301° (WNW) 14:15:10 145.980
AIST 1 20 Jan 14:06:43 14:11:05 83° 94° (E) 14:15:27
DANDE 20 Jan 14:08:39 14:15:11 28° 70° (ENE) 14:22:01 436.750
Gurwin Techsat 1B 20 Jan 14:13:50 14:18:41 36° 262° (W) 14:23:34 435.225
BEESAT 20 Jan 14:17:36 14:21:26 23° 95° (E) 14:25:15 436.000
SWISSCUBE 20 Jan 14:19:03 14:23:08 27° 96° (E) 14:27:12 437.505
Cosmos 2504 20 Jan 14:19:26 14:27:18 39° 88° (E) 14:34:46 435.465 / 435.565
ITAMSAT 1 20 Jan 14:41:51 14:47:01 84° 75° (ENE) 14:52:13 435.822/435.867
AO-7 20 Jan 14:50:46 14:59:05 77° 70° (ENE) 15:07:28 29.400- 29.500
Cosmos 2491 20 Jan 14:59:58 15:07:21 32° 276° (W) 15:14:44 435.465 / 435.565
CUSAT 1 20 Jan 15:00:39 15:08:25 57° 268° (W) 15:15:28 437.405
YUBILEINY 20 Jan 15:01:59 15:10:42 66° 280° (W) 15:19:31 435.215
TISAT 1 20 Jan 15:13:28 15:15:44 14° 294° (WNW) 15:18:00 437.305
BEESAT 3 20 Jan 15:19:07 15:21:20 15° 109° (ESE) 15:23:35 437.485
ITUPSAT 1 20 Jan 15:19:56 15:24:45 77° 284° (WNW) 15:29:33 437.325
JUGNU 20 Jan 15:24:32 15:27:11 13° 177° (S) 15:29:49 437.505
M-CUBED/EXP-1 PRIME 20 Jan 15:39:41 15:40:27 11° 97° (E) 15:41:13 437.505
MOZHAYETS 4 20 Jan 15:48:56 15:53:35 68° 101° (ESE) 15:58:12
DANDE 20 Jan 15:50:27 15:58:18 66° 265° (W) 16:06:31 436.750
AO-85 20 Jan 15:50:58 15:51:43 10° 317° (NW) 15:52:27 145.980
BRITE-PL 20 Jan 15:53:52 15:59:04 38° 71° (ENE) 16:04:13 437.365/2234.400
BEESAT 20 Jan 15:54:57 15:59:13 33° 290° (WNW) 16:03:27 436.000
SWISSCUBE 20 Jan 15:56:45 16:00:50 28° 291° (WNW) 16:04:55 437.505
GOMX 1 20 Jan 15:59:20 16:02:43 17° 66° (ENE) 16:06:01 467.674
BEESAT 2 20 Jan 16:03:24 16:06:17 20° 111° (ESE) 16:09:13 435.950
O/OREOS (USA 219) 20 Jan 16:05:55 16:10:14 44° 65° (ENE) 16:14:33 437.305
Cosmos 2504 20 Jan 16:12:27 16:20:32 42° 284° (WNW) 16:28:15 435.465 / 435.565
AUBIESAT-1 20 Jan 16:14:23 16:17:13 25° 102° (ESE) 16:20:00 437.475
KKS-1 20 Jan 16:27:47 16:32:07 52° 100° (E) 16:36:25 437.445
HORYU 2 20 Jan 16:33:43 16:37:47 37° 71° (ENE) 16:41:51 437.375
CUBESAT XI-V 20 Jan 16:35:24 16:39:32 30° 96° (E) 16:43:37 437.345
DOVE 4 20 Jan 16:38:17 16:41:03 15° 66° (ENE) 16:43:44 437.250
Cubesat XI-IV 20 Jan 16:38:18 16:41:41 17° 63° (ENE) 16:45:05 437.490
NOAA 18 20 Jan 16:45:45 16:47:37 12° 59° (ENE) 16:49:29 137.9125
NOAA 15 20 Jan 16:45:59 16:49:57 22° 65° (ENE) 16:53:56 137.62
AO-7 20 Jan 16:46:40 16:52:32 21° 267° (W) 16:58:27 29.400- 29.500
SRMSAT 20 Jan 16:54:48 16:56:53 12° 172° (S) 16:58:56 437.500
BEESAT 3 20 Jan 16:54:56 16:58:35 39° 305° (NW) 17:02:18 437.485
SO-50 20 Jan 16:56:02 17:00:31 67° 57° (ENE) 17:04:56 436.795
YUBILEINY 20 Jan 17:07:01 17:09:23 11° 301° (WNW) 17:11:45 435.215
M-CUBED/EXP-1 PRIME 20 Jan 17:12:07 17:15:07 31° 293° (WNW) 17:18:02 437.505
JUGNU 20 Jan 17:13:23 17:15:19 12° 188° (S) 17:17:15 437.505
LilacSat-2 20 Jan 17:14:02 17:17:23 31° 72° (ENE) 17:20:45 437.200
STARS 20 Jan 17:20:26 17:24:49 88° 289° (WNW) 17:29:12 437.465
MOZHAYETS 4 20 Jan 17:28:30 17:30:07 12° 297° (WNW) 17:31:45
BRITE-PL 20 Jan 17:32:40 17:37:30 28° 265° (W) 17:42:20 437.365/2234.400
CUTE-I 20 Jan 17:32:47 17:37:57 57° 73° (ENE) 17:43:10 437.470
GOMX 1 20 Jan 17:34:58 17:40:19 59° 260° (W) 17:45:29 467.674
DANDE 20 Jan 17:37:29 17:39:46 11° 281° (W) 17:42:05 436.750
BEESAT 2 20 Jan 17:40:20 17:43:52 30° 307° (NW) 17:47:26 435.950
O/OREOS (USA 219) 20 Jan 17:46:36 17:49:14 15° 260° (W) 17:51:50 437.305
AUBIESAT-1 20 Jan 17:49:35 17:51:26 14° 297° (WNW) 17:53:15 437.475
CINEMA 3 20 Jan 18:04:30 18:08:03 24° 70° (ENE) 18:11:31 145.822/145.860
KKS-1 20 Jan 18:06:01 18:08:12 14° 296° (WNW) 18:10:23 437.445
HO-68 20 Jan 18:07:15 18:13:22 31° 63° (ENE) 18:19:28 435.675
HORYU 2 20 Jan 18:11:31 18:14:26 17° 266° (W) 18:17:22 437.375
CUBESAT XI-V 20 Jan 18:12:58 18:16:44 24° 292° (WNW) 18:20:29 437.345
DOVE 4 20 Jan 18:13:21 18:18:19 57° 260° (W) 18:23:02 437.250
CANX-2 20 Jan 18:13:57 18:16:58 19° 68° (ENE) 18:20:00 2200.000
Cubesat XI-IV 20 Jan 18:16:03 18:21:15 57° 259° (W) 18:26:29 437.490
NOAA 18 20 Jan 18:21:56 18:27:28 90° 291° (WNW) 18:32:59 137.9125
NOAA 15 20 Jan 18:24:22 18:29:23 44° 261° (W) 18:34:27 137.62
SEEDS 20 Jan 18:25:18 18:27:35 15° 66° (ENE) 18:29:55 437.485
STRAND 1 20 Jan 18:27:21 18:29:39 13° 91° (E) 18:31:57 437.568
COMPASS 1 20 Jan 18:31:38 18:32:37 11° 64° (ENE) 18:33:36 437.405
Cosmos 2499 20 Jan 18:33:28 18:39:48 24° 84° (E) 18:45:49 435.465 / 435.565
SO-50 20 Jan 18:39:13 18:40:21 11° 253° (WSW) 18:41:29 436.795
SRMSAT 20 Jan 18:42:22 18:45:11 14° 182° (S) 18:48:00 437.500
AAUSAT CUBESAT 2 20 Jan 18:42:34 18:43:37 11° 64° (ENE) 18:44:40 437.432
LilacSat-2 20 Jan 18:49:34 18:51:44 15° 267° (W) 18:53:56 437.200
CUBEBUG 2 20 Jan 18:57:53 19:00:57 20° 69° (ENE) 19:04:00 437.445
CUTE-I 20 Jan 19:15:09 19:18:20 16° 268° (W) 19:21:30 437.470
CUTE 1.7 + AOD 2 20 Jan 19:18:54 19:23:08 87° 256° (WSW) 19:27:26 437.475
FUNcube-1 20 Jan 19:21:55 19:23:37 12° 65° (ENE) 19:25:20 145.935
UWE-3 20 Jan 19:25:15 19:28:40 25° 70° (ENE) 19:32:05 435.000/436.395/437.385
AIST 2 20 Jan 19:39:52 19:43:58 87° 305° (NW) 19:48:09 435.215
CINEMA 3 20 Jan 19:41:19 19:45:05 26° 264° (W) 19:48:43 145.822/145.860
ZACube-1 20 Jan 19:43:22 19:46:41 24° 70° (ENE) 19:50:02 437.345
CANX-2 20 Jan 19:48:45 19:52:34 32° 263° (W) 19:56:25 2200.000
GONETS M04 20 Jan 19:49:13 19:57:44 64° 92° (E) 20:06:21
HO-68 20 Jan 19:53:53 20:00:46 48° 260° (W) 20:07:42 435.675
SEEDS 20 Jan 19:58:52 20:02:53 44° 261° (W) 20:06:57 437.485
COMPASS 1 20 Jan 20:03:27 20:07:35 61° 260° (W) 20:11:46 437.405
STRAND 1 20 Jan 20:04:08 20:09:14 66° 286° (WNW) 20:14:20 437.568
AAUSAT CUBESAT 2 20 Jan 20:14:25 20:18:32 59° 260° (W) 20:22:41 437.432
Oscar 11 20 Jan 20:18:06 20:22:17 53° 74° (ENE) 20:26:30 145.826/435.025
Cosmos 2499 20 Jan 20:23:56 20:32:20 63° 280° (W) 20:40:10 435.465 / 435.565
CUBEBUG 2 20 Jan 20:33:47 20:37:23 28° 263° (W) 20:41:00 437.445
FUNcube-1 20 Jan 20:55:25 20:59:24 49° 261° (W) 21:03:26 145.935
UWE-3 20 Jan 21:01:49 21:05:04 22° 265° (W) 21:08:19 435.000/436.395/437.385
ISS 20 Jan 21:14:35 21:17:12 22° 131° (SE) 21:19:49 145.825
ZACube-1 20 Jan 21:19:33 21:22:53 23° 265° (W) 21:26:14 437.345
AIST 2 20 Jan 21:22:46 21:23:05 10° 318° (NW) 21:23:25 435.215
HUMSAT D 20 Jan 21:25:57 21:29:56 54° 75° (ENE) 21:34:00 437.325/437.525
DELFI C3 20 Jan 21:28:08 21:32:06 69° 258° (WSW) 21:36:08 145.870
JAS-2 20 Jan 21:33:22 21:34:32 10° 87° (E) 21:35:41 435.910
PRISM 20 Jan 21:39:49 21:43:56 73° 103° (ESE) 21:47:59 437.425
GONETS M04 20 Jan 21:48:16 21:55:09 26° 291° (WNW) 22:02:08
Oscar 11 20 Jan 21:57:11 21:58:43 12° 269° (W) 22:00:14 145.826/435.025
RS-15 20 Jan 22:10:09 22:19:34 29° 102° (ESE) 22:29:16 29.354- 29.394
UNISAT 6 20 Jan 22:10:47 22:15:06 48° 100° (E) 22:19:29 437.425
BY70-1 20 Jan 22:15:44 22:18:34 42° 74° (ENE) 22:21:37 436.1900
TIGRISAT 20 Jan 22:23:55 22:28:20 64° 101° (E) 22:32:50 435.000
ESTCUBE 1 20 Jan 22:25:10 22:29:13 33° 71° (ENE) 22:33:18 437.505/2401.250
VELOX 1 20 Jan 22:36:05 22:38:46 16° 65° (ENE) 22:41:26 145.980
ANTELSAT 20 Jan 22:39:16 22:43:43 81° 285° (WNW) 22:48:16 437.575/2403.000
AO-85 20 Jan 22:39:24 22:43:08 43° 55° (NE) 22:46:53 145.980
ISS 20 Jan 22:50:34 22:53:33 32° 327° (NNW) 22:56:32 145.825
SPROUT 20 Jan 23:00:47 23:03:53 20° 68° (ENE) 23:07:00 437.525
HUMSAT D 20 Jan 23:05:34 23:05:53 10° 270° (W) 23:06:12 437.325/437.525
UKube-1 20 Jan 23:06:20 23:07:36 11° 63° (ENE) 23:08:52 .
DX 1 20 Jan 23:06:37 23:09:18 16° 66° (ENE) 23:11:59 434.975-435.025
JAS-2 20 Jan 23:13:05 23:20:23 69° 102° (ESE) 23:28:10 435.910
CUBEBUG 1 20 Jan 23:19:17 23:23:41 78° 75° (ENE) 23:28:05 437.445
50 SAT 20 Jan 23:23:13 23:26:27 33° 73° (ENE) 23:29:42 437.505
QB50P1 20 Jan 23:32:58 23:36:49 34° 98° (E) 23:40:40 145.935-145.965
AISAT 20 Jan 23:36:58 23:41:25 80° 76° (ENE) 23:45:52 437.250
POLYITAN 1 20 Jan 23:37:12 23:41:11 39° 99° (E) 23:45:08 437.675
QB50P2 20 Jan 23:38:25 23:42:28 43° 99° (E) 23:46:30 145.880/145.840
PCSat 20 Jan 23:46:45 23:51:07 25° 107° (ESE) 23:55:30 145.827
UNISAT 6 20 Jan 23:48:54 23:51:25 15° 294° (WNW) 23:53:57 437.425
POPSAT HIP 1 20 Jan 23:59:39 00:03:53 72° 102° (ESE) 00:08:06 437.405
ESTCUBE 1 21 Jan 00:02:39 00:06:03 21° 266° (W) 00:09:29 437.505/2401.250
TIGRISAT 21 Jan 00:02:57 00:04:29 12° 296° (WNW) 00:06:02 435.000
DUCHIFAT 1 21 Jan 00:09:49 00:14:02 81° 104° (ESE) 00:18:14 145.980
VELOX 1 21 Jan 00:10:34 00:14:50 45° 261° (W) 00:19:06 145.980
NANOSAT C BR1 21 Jan 00:15:40 00:19:52 78° 284° (WNW) 00:24:05 145.865
AIST 1 21 Jan 00:16:52 00:19:34 16° 73° (ENE) 00:22:15
RS-15 21 Jan 00:18:59 00:30:49 75° 303° (WNW) 00:43:14 29.354- 29.394
AO-85 21 Jan 00:21:23 00:23:07 13° 251° (WSW) 00:24:50 145.980
TISAT 1 21 Jan 00:26:28 00:29:54 25° 70° (ENE) 00:33:19 437.305
Oscar 19 21 Jan 00:35:16 00:37:52 14° 91° (E) 00:40:26 437.125/150
SPROUT 21 Jan 00:35:49 00:39:35 31° 263° (W) 00:43:23 437.525
UKube-1 21 Jan 00:38:48 00:43:03 63° 258° (WSW) 00:47:21 .
DX 1 21 Jan 00:40:58 00:45:07 42° 260° (W) 00:49:17 434.975-435.025
BUGSAT 1 21 Jan 00:42:17 00:46:18 65° 101° (E) 00:50:20 437.445
ITUPSAT 1 21 Jan 00:51:50 00:52:10 10° 61° (ENE) 00:52:30 437.325
Gurwin Techsat 1B 21 Jan 00:54:53 00:56:12 11° 90° (E) 00:57:32 435.225
50 SAT 21 Jan 00:58:12 00:59:46 12° 267° (W) 01:01:19 437.505
JAS-2 21 Jan 00:59:19 01:04:49 24° 296° (WNW) 01:10:37 435.910
QB50P1 21 Jan 01:09:27 01:12:19 18° 293° (WNW) 01:15:11 145.935-145.965
BEESAT 3 21 Jan 01:13:11 01:17:09 59° 58° (ENE) 01:21:04 437.485
POLYITAN 1 21 Jan 01:14:00 01:16:37 16° 293° (WNW) 01:19:15 437.675
YUBILEINY 21 Jan 01:14:36 01:23:18 58° 79° (E) 01:31:52 435.215
QB50P2 21 Jan 01:15:31 01:17:52 15° 294° (WNW) 01:20:13 145.880/145.840
BEESAT 21 Jan 01:22:23 01:26:03 23° 67° (ENE) 01:29:43 436.000
SWISSCUBE 21 Jan 01:23:48 01:27:42 26° 68° (ENE) 01:31:38 437.505
PCSat 21 Jan 01:29:11 01:34:15 40° 304° (WNW) 01:39:22 145.827
AIST 1 21 Jan 01:53:24 01:57:16 34° 269° (W) 02:01:07
PHONESAT 2.4 21 Jan 01:58:01 02:00:15 66° 159° (SSE) 02:02:30 2401.200-2431.200
BEESAT 2 21 Jan 01:59:11 02:03:14 82° 58° (ENE) 02:07:16 435.950
Cosmos 2491 21 Jan 02:00:49 02:09:21 64° 92° (E) 02:17:55 435.465 / 435.565
TISAT 1 21 Jan 02:02:06 02:05:27 23° 264° (W) 02:08:48 437.305
Cosmos 2504 21 Jan 02:07:12 02:14:31 65° 80° (E) 02:21:35 435.465 / 435.565
Oscar 19 21 Jan 02:12:28 02:17:34 62° 286° (WNW) 02:22:37 437.125/150
CUSAT 1 21 Jan 02:19:08 02:23:00 22° 82° (E) 02:27:35 437.405
M-CUBED/EXP-1 PRIME 21 Jan 02:22:34 02:25:15 16° 63° (ENE) 02:27:51 437.505
ITUPSAT 1 21 Jan 02:24:30 02:29:16 83° 257° (WSW) 02:34:04 437.325
Gurwin Techsat 1B 21 Jan 02:31:22 02:36:42 80° 285° (WNW) 02:42:00 435.225
RS-15 21 Jan 02:36:14 02:45:53 26° 330° (NNW) 02:55:46 29.354- 29.394
MOZHAYETS 4 21 Jan 02:48:42 02:53:05 50° 73° (ENE) 02:57:33
BEESAT 3 21 Jan 02:54:05 02:54:12 10° 253° (WSW) 02:54:19 437.485
AO-7 21 Jan 02:55:29 03:02:23 28° 96° (E) 03:09:10 29.400- 29.500
ITAMSAT 1 21 Jan 02:56:53 03:01:37 34° 98° (E) 03:06:19 435.822/435.867
AUBIESAT-1 21 Jan 02:57:29 03:01:14 31° 67° (ENE) 03:04:49 437.475
BEESAT 21 Jan 02:59:17 03:03:36 34° 262° (W) 03:07:57 436.000
SWISSCUBE 21 Jan 03:01:14 03:05:21 29° 263° (W) 03:09:31 437.505
YUBILEINY 21 Jan 03:12:24 03:19:26 28° 277° (W) 03:26:27 435.215
DANDE 21 Jan 03:17:35 03:19:43 14° 81° (E) 03:22:09 436.750
KKS-1 21 Jan 03:23:50 03:27:57 38° 71° (ENE) 03:32:04 437.445
PHONESAT 2.4 21 Jan 03:32:11 03:34:19 36° 356° (N) 03:36:28 2401.200-2431.200
CUBESAT XI-V 21 Jan 03:36:56 03:40:43 25° 69° (ENE) 03:44:32 437.345
ISS 21 Jan 03:43:50 03:46:13 18° 27° (NNE) 03:48:36 145.825
M-CUBED/EXP-1 PRIME 21 Jan 03:55:12 03:59:25 43° 255° (WSW) 04:03:25 437.505
CUSAT 1 21 Jan 03:59:25 04:04:13 45° 286° (WNW) 04:10:28 437.405
Cosmos 2491 21 Jan 03:59:52 04:06:46 26° 291° (WNW) 04:13:44 435.465 / 435.565
Cosmos 2504 21 Jan 04:02:17 04:07:03 19° 279° (W) 04:11:44 435.465 / 435.565
AIST 2 21 Jan 04:03:03 04:06:56 33° 53° (NE) 04:10:47 435.215
BRITE-PL 21 Jan 04:03:57 04:05:10 11° 88° (E) 04:06:22 437.365/2234.400
STARS 21 Jan 04:14:48 04:19:07 63° 74° (ENE) 04:23:27 437.465
MOZHAYETS 4 21 Jan 04:28:11 04:30:31 14° 268° (W) 04:32:52
AUBIESAT-1 21 Jan 04:32:21 04:35:36 21° 259° (W) 04:38:43 437.475
ITAMSAT 1 21 Jan 04:36:35 04:40:54 27° 293° (WNW) 04:45:13 435.822/435.867
AO-7 21 Jan 04:47:19 04:55:30 61° 293° (WNW) 05:03:38 29.400- 29.500
RS-15 21 Jan 04:57:12 05:04:49 18° 6° (N) 05:12:24 29.354- 29.394
DANDE 21 Jan 04:58:10 05:01:41 35° 288° (WNW) 05:06:17 436.750
KKS-1 21 Jan 05:01:39 05:04:36 17° 266° (W) 05:07:35 437.445
PHONESAT 2.4 21 Jan 05:06:16 05:08:29 54° 11° (NNE) 05:10:43 2401.200-2431.200
CUBESAT XI-V 21 Jan 05:13:48 05:17:55 30° 264° (W) 05:22:05 437.345
ISS 21 Jan 05:19:43 05:22:54 55° 223° (SW) 05:26:04 145.825
BRITE-PL 21 Jan 05:39:26 05:44:13 62° 285° (WNW) 05:48:36 437.365/2234.400
GOMX 1 21 Jan 05:39:27 05:43:40 46° 99° (E) 05:47:41 467.674
STRAND 1 21 Jan 05:41:17 05:44:25 17° 64° (ENE) 05:47:32 437.568
AIST 2 21 Jan 05:41:59 05:45:11 21° 249° (WSW) 05:48:22 435.215
CUTE-I 21 Jan 05:52:11 05:56:38 26° 96° (E) 06:01:03 437.470
HORYU 2 21 Jan 06:02:17 06:06:45 82° 284° (WNW) 06:11:13 437.375
GONETS M04 21 Jan 06:02:24 06:09:47 29° 70° (ENE) 06:17:07
DOVE 4 21 Jan 06:14:25 06:18:21 40° 98° (E) 06:22:15 437.250
O/OREOS (USA 219) 21 Jan 06:16:00 06:20:27 76° 109° (ESE) 06:24:56 437.305
Cosmos 2499 21 Jan 06:18:01 06:24:34 38° 75° (ENE) 06:31:04 435.465 / 435.565
LilacSat-2 21 Jan 06:22:40 06:26:31 64° 101° (E) 06:30:22 437.200
Cubesat XI-IV 21 Jan 06:35:00 06:40:20 68° 102° (ESE) 06:45:39 437.490
PHONESAT 2.4 21 Jan 06:40:27 06:42:22 24° 207° (SSW) 06:44:17 2401.200-2431.200
NOAA 15 21 Jan 06:41:04 06:46:25 82° 104° (ESE) 06:51:42 137.62
AO-7 21 Jan 06:43:31 06:46:33 12° 313° (NW) 06:49:33 29.400- 29.500
NOAA 18 21 Jan 06:46:06 06:51:18 44° 100° (E) 06:56:29 137.9125
CUTE 1.7 + AOD 2 21 Jan 07:06:35 07:09:37 19° 94° (E) 07:12:37 437.475
SO-50 21 Jan 07:08:21 07:12:37 34° 114° (ESE) 07:16:51 436.795
RS-15 21 Jan 07:11:35 07:22:43 36° 40° (NE) 07:33:28 29.354- 29.394
STRAND 1 21 Jan 07:18:07 07:23:05 56° 259° (W) 07:28:07 437.568
GOMX 1 21 Jan 07:19:06 07:21:18 14° 296° (WNW) 07:23:27 467.674
HO-68 21 Jan 07:23:35 07:30:10 38° 98° (E) 07:36:41 435.675
CUTE-I 21 Jan 07:31:52 07:36:41 35° 291° (WNW) 07:41:30 437.470
CANX-2 21 Jan 07:35:06 07:39:16 47° 99° (E) 07:43:23 2200.000
CINEMA 3 21 Jan 07:36:33 07:40:46 79° 103° (ESE) 07:45:07 145.822/145.860
SEEDS 21 Jan 07:44:31 07:48:23 33° 97° (E) 07:52:13 437.485
COMPASS 1 21 Jan 07:48:34 07:51:58 24° 95° (E) 07:55:20 437.405
DOVE 4 21 Jan 07:53:27 07:55:42 14° 294° (WNW) 07:57:57 437.250
GONETS M04 21 Jan 07:58:26 08:07:02 59° 269° (W) 08:15:38
AAUSAT CUBESAT 2 21 Jan 07:58:56 08:02:19 23° 95° (E) 08:05:40 437.432
O/OREOS (USA 219) 21 Jan 07:59:33 08:00:24 10° 306° (NW) 08:01:16 437.305
Oscar 11 21 Jan 08:09:26 08:10:50 11° 91° (E) 08:12:14 145.826/435.025
Cosmos 2499 21 Jan 08:11:23 08:17:29 32° 273° (W) 08:23:34 435.465 / 435.565
Cubesat XI-IV 21 Jan 08:16:52 08:19:48 15° 298° (WNW) 08:22:43 437.490
NOAA 15 21 Jan 08:23:19 08:25:26 12° 300° (WNW) 08:27:32 137.62
CUBEBUG 2 21 Jan 08:25:08 08:29:28 62° 101° (E) 08:33:56 437.445
PRISM 21 Jan 08:27:00 08:30:52 39° 72° (ENE) 08:34:46 437.425
NOAA 18 21 Jan 08:27:29 08:31:39 23° 295° (WNW) 08:35:48 137.9125
PCSat 21 Jan 08:36:33 08:39:54 16° 46° (NE) 08:43:15 145.827
CUTE 1.7 + AOD 2 21 Jan 08:41:38 08:45:30 33° 288° (WNW) 08:49:19 437.475
FUNcube-1 21 Jan 08:44:50 08:48:51 34° 97° (E) 08:52:56 145.935
SO-50 21 Jan 08:49:08 08:53:06 26° 310° (NW) 08:57:03 436.795
UWE-3 21 Jan 08:51:35 08:55:59 78° 101° (ESE) 09:00:30 435.000/436.395/437.385
UNISAT 6 21 Jan 09:08:03 09:11:50 32° 71° (ENE) 09:15:37 437.425
ZACube-1 21 Jan 09:08:12 09:12:36 70° 101° (E) 09:17:05 437.345
DELFI C3 21 Jan 09:08:19 09:10:54 16° 93° (E) 09:13:27 145.870
HO-68 21 Jan 09:11:17 09:17:48 39° 295° (WNW) 09:24:17 435.675
CANX-2 21 Jan 09:12:26 09:14:41 14° 294° (WNW) 09:16:55 2200.000
HUMSAT D 21 Jan 09:13:44 09:14:35 10° 91° (E) 09:15:24 437.325/437.525
SEEDS 21 Jan 09:20:50 09:23:48 19° 292° (WNW) 09:26:46 437.485
TIGRISAT 21 Jan 09:20:51 09:24:50 41° 73° (ENE) 09:28:50 435.000
COMPASS 1 21 Jan 09:23:57 09:27:25 25° 290° (WNW) 09:30:50 437.405
RS-15 21 Jan 09:24:07 09:36:23 75° 245° (WSW) 09:48:07 29.354- 29.394
JAS-2 21 Jan 09:25:59 09:29:48 20° 62° (ENE) 09:33:51 435.910
AAUSAT CUBESAT 2 21 Jan 09:34:16 09:37:41 25° 290° (WNW) 09:41:05 437.432
ANTELSAT 21 Jan 09:36:05 09:40:18 68° 76° (ENE) 09:44:32 437.575/2403.000
Oscar 11 21 Jan 09:43:00 09:47:16 55° 286° (WNW) 09:51:32 145.826/435.025
PRISM 21 Jan 10:03:52 10:06:18 15° 267° (W) 10:08:44 437.425
CUBEBUG 2 21 Jan 10:04:09 10:05:35 11° 295° (WNW) 10:07:02 437.445
PCSat 21 Jan 10:18:28 10:23:55 77° 245° (WSW) 10:29:18 145.827
FUNcube-1 21 Jan 10:21:38 10:24:51 20° 292° (WNW) 10:28:06 145.935
QB50P1 21 Jan 10:24:02 10:27:08 21° 68° (ENE) 10:30:15 145.935-145.965
POLYITAN 1 21 Jan 10:28:18 10:31:36 23° 69° (ENE) 10:34:55 437.675
QB50P2 21 Jan 10:29:25 10:32:52 25° 70° (ENE) 10:36:20 145.880/145.840
